• Em Portugal
  • Lista de países
  • Para 7 dias
  • Temperatura da água
  • Mapas de satélite
  • Mapa do tempo
  • Widgets de tempo
  • user-avatar
    Iniciar Sessão

    Previsão horária em Njiva

    Hoje, 15 Agosto, Quarta-feira

    Tempo Temperatura Precipitação Vento Pressão Humidade
    00:00 +20°C° 0 mm 2 m/s 669 mmHg 20%
    01:00 +19°C° 0 mm 2 m/s 669 mmHg 22%
    02:00 +19°C° 0 mm 2 m/s 669 mmHg 22%
    03:00 +19°C° 0 mm 1 m/s 669 mmHg 23%
    04:00 +18°C° 0 mm 1 m/s 668 mmHg 23%
    05:00 +18°C° 0 mm 1 m/s 669 mmHg 24%
    06:00 +18°C° 0 mm 1 m/s 669 mmHg 25%
    07:00 +20°C° 0 mm 1 m/s 670 mmHg 24%
    08:00 +23°C° 0 mm 1 m/s 671 mmHg 20%
    09:00 +26°C° 0 mm 1 m/s 672 mmHg 16%
    10:00 +30°C° 0 mm 2 m/s 672 mmHg 12%
    11:00 +31°C° 0 mm 2 m/s 672 mmHg 11%
    12:00 +34°C° 0 mm 2 m/s 672 mmHg 9%
    13:00 +35°C° 0 mm 3 m/s 671 mmHg 10%
    14:00 +35°C° 0 mm 2 m/s 671 mmHg 10%
    15:00 +36°C° 0 mm 2 m/s 670 mmHg 9%
    16:00 +36°C° 0 mm 2 m/s 670 mmHg 9%
    17:00 +32°C° 0 mm 2 m/s 670 mmHg 11%
    18:00 +29°C° 0 mm 2 m/s 669 mmHg 14%
    19:00 +26°C° 0 mm 2 m/s 669 mmHg 16%
    20:00 +25°C° 0 mm 2 m/s 669 mmHg 17%
    21:00 +24°C° 0 mm 2 m/s 669 mmHg 18%
    22:00 +23°C° 0 mm 2 m/s 669 mmHg 20%
    23:00 +21°C° 0 mm 2 m/s 669 mmHg 21%

    Amanhã, 16 Agosto, Quinta-feira

    Tempo Temperatura Precipitação Vento Pressão Humidade
    00:00 +21°C° 0 mm 2 m/s 669 mmHg 21%
    01:00 +20°C° 0 mm 2 m/s 669 mmHg 22%
    02:00 +19°C° 0 mm 2 m/s 669 mmHg 23%
    03:00 +19°C° 0 mm 2 m/s 669 mmHg 24%
    04:00 +18°C° 0 mm 2 m/s 669 mmHg 25%
    05:00 +19°C° 0 mm 1 m/s 669 mmHg 25%
    06:00 +19°C° 0 mm 1 m/s 669 mmHg 26%
    07:00 +19°C° 0 mm 1 m/s 670 mmHg 26%
    08:00 +23°C° 0 mm 1 m/s 670 mmHg 22%
    09:00 +27°C° 0 mm 2 m/s 671 mmHg 18%
    10:00 +30°C° 0 mm 2 m/s 672 mmHg 13%
    11:00 +32°C° 0 mm 2 m/s 672 mmHg 12%
    12:00 +35°C° 0 mm 2 m/s 671 mmHg 10%
    13:00 +36°C° 0 mm 2 m/s 671 mmHg 9%
    14:00 +36°C° 0 mm 2 m/s 670 mmHg 9%
    15:00 +36°C° 0 mm 2 m/s 670 mmHg 9%
    16:00 +36°C° 0 mm 2 m/s 669 mmHg 9%
    17:00 +32°C° 0 mm 2 m/s 669 mmHg 10%
    18:00 +30°C° 0 mm 3 m/s 669 mmHg 12%
    19:00 +27°C° 0 mm 3 m/s 668 mmHg 14%
    20:00 +26°C° 0 mm 3 m/s 669 mmHg 15%
    21:00 +25°C° 0 mm 3 m/s 669 mmHg 16%
    22:00 +24°C° 0 mm 3 m/s 669 mmHg 17%
    23:00 +22°C° 0 mm 3 m/s 669 mmHg 18%

    Depois de amanhã, 17 Agosto, Sexta-feira

    Tempo Temperatura Precipitação Vento Pressão Humidade
    00:00 +22°C° 0 mm 3 m/s 669 mmHg 19%
    01:00 +21°C° 0 mm 3 m/s 669 mmHg 20%
    02:00 +20°C° 0 mm 3 m/s 668 mmHg 23%
    03:00 +19°C° 0 mm 3 m/s 668 mmHg 25%
    04:00 +19°C° 0 mm 3 m/s 668 mmHg 27%
    05:00 +19°C° 0 mm 3 m/s 668 mmHg 28%
    06:00 +18°C° 0 mm 2 m/s 669 mmHg 28%
    07:00 +18°C° 0 mm 2 m/s 669 mmHg 29%
    08:00 +22°C° 0 mm 3 m/s 670 mmHg 24%
    09:00 +27°C° 0 mm 3 m/s 671 mmHg 18%
    10:00 +32°C° 0 mm 4 m/s 672 mmHg 13%
    11:00 +34°C° 0 mm 3 m/s 671 mmHg 12%
    12:00 +35°C° 0 mm 3 m/s 671 mmHg 11%
    13:00 +37°C° 0 mm 2 m/s 670 mmHg 10%
    14:00 +37°C° 0 mm 2 m/s 669 mmHg 10%
    15:00 +37°C° 0 mm 2 m/s 669 mmHg 9%
    16:00 +37°C° 0 mm 2 m/s 668 mmHg 9%
    17:00 +34°C° 0 mm 2 m/s 668 mmHg 11%
    18:00 +30°C° 0 mm 2 m/s 667 mmHg 13%
    19:00 +27°C° 0 mm 2 m/s 667 mmHg 15%
    20:00 +26°C° 0 mm 2 m/s 667 mmHg 17%
    21:00 +25°C° 0 mm 2 m/s 667 mmHg 18%
    22:00 +24°C° 0 mm 2 m/s 668 mmHg 19%
    23:00 +23°C° 0 mm 2 m/s 667 mmHg 19%

    18 Agosto, Sábado

    Tempo Temperatura Precipitação Vento Pressão Humidade
    00:00 +23°C° 0 mm 2 m/s 667 mmHg 20%
    01:00 +21°C° 0 mm 2 m/s 667 mmHg 21%
    02:00 +20°C° 0 mm 2 m/s 666 mmHg 22%
    03:00 +20°C° 0 mm 2 m/s 666 mmHg 22%
    04:00 +19°C° 0 mm 2 m/s 666 mmHg 23%
    05:00 +19°C° 0 mm 3 m/s 667 mmHg 23%
    06:00 +19°C° 0 mm 3 m/s 667 mmHg 23%
    07:00 +19°C° 0 mm 4 m/s 668 mmHg 23%
    08:00 +22°C° 0 mm 4 m/s 669 mmHg 20%
    09:00 +26°C° 0 mm 4 m/s 670 mmHg 16%
    10:00 +30°C° 0 mm 5 m/s 670 mmHg 12%
    11:00 +33°C° 0 mm 5 m/s 670 mmHg 11%
    12:00 +35°C° 0 mm 4 m/s 669 mmHg 9%
    13:00 +37°C° 0 mm 4 m/s 669 mmHg 8%
    14:00 +37°C° 0 mm 3 m/s 668 mmHg 8%
    15:00 +37°C° 0 mm 2 m/s 668 mmHg 8%
    16:00 +37°C° 0 mm 2 m/s 667 mmHg 8%
    17:00 +34°C° 0 mm 2 m/s 667 mmHg 9%
    18:00 +30°C° 0 mm 1 m/s 667 mmHg 11%
    19:00 +27°C° 0 mm 1 m/s 666 mmHg 13%
    20:00 +26°C° 0 mm 1 m/s 667 mmHg 14%
    21:00 +25°C° 0 mm 2 m/s 667 mmHg 15%
    22:00 +24°C° 0 mm 2 m/s 667 mmHg 15%
    23:00 +23°C° 0 mm 2 m/s 667 mmHg 16%

    19 Agosto, Domingo

    Tempo Temperatura Precipitação Vento Pressão Humidade
    00:00 +21°C° 0 mm 2 m/s 667 mmHg 17%
    01:00 +20°C° 0 mm 2 m/s 666 mmHg 18%
    02:00 +19°C° 0 mm 2 m/s 666 mmHg 19%
    03:00 +19°C° 0 mm 2 m/s 666 mmHg 20%
    04:00 +18°C° 0 mm 2 m/s 666 mmHg 21%
    05:00 +19°C° 0 mm 1 m/s 666 mmHg 22%
    06:00 +19°C° 0 mm 1 m/s 667 mmHg 22%
    07:00 +19°C° 0 mm 1 m/s 667 mmHg 23%
    08:00 +23°C° 0 mm 2 m/s 668 mmHg 19%
    09:00 +27°C° 0 mm 2 m/s 669 mmHg 15%
    10:00 +30°C° 0 mm 3 m/s 670 mmHg 11%
    11:00 +33°C° 0 mm 3 m/s 669 mmHg 10%
    12:00 +35°C° 0 mm 3 m/s 669 mmHg 8%
    13:00 +37°C° 0 mm 2 m/s 668 mmHg 7%
    14:00 +37°C° 0 mm 2 m/s 668 mmHg 7%
    15:00 +37°C° 0 mm 1 m/s 668 mmHg 6%
    16:00 +37°C° 0 mm 1 m/s 667 mmHg 6%
    17:00 +34°C° 0 mm 1 m/s 667 mmHg 8%
    18:00 +30°C° 0 mm 2 m/s 667 mmHg 9%
    19:00 +27°C° 0 mm 2 m/s 666 mmHg 11%
    20:00 +26°C° 0 mm 3 m/s 667 mmHg 12%
    21:00 +25°C° 0 mm 3 m/s 667 mmHg 13%
    22:00 +24°C° 0 mm 3 m/s 667 mmHg 14%
    23:00 +22°C° 0 mm 3 m/s 667 mmHg 15%

    20 Agosto, Segunda-feira

    Tempo Temperatura Precipitação Vento Pressão Humidade
    00:00 +22°C° 0 mm 3 m/s 667 mmHg 16%
    01:00 +21°C° 0 mm 3 m/s 667 mmHg 17%
    02:00 +20°C° 0 mm 2 m/s 667 mmHg 19%
    03:00 +19°C° 0 mm 2 m/s 667 mmHg 22%
    04:00 +18°C° 0 mm 2 m/s 667 mmHg 25%
    05:00 +19°C° 0 mm 1 m/s 667 mmHg 25%
    06:00 +19°C° 0 mm 1 m/s 668 mmHg 25%
    07:00 +19°C° 0 mm 1 m/s 668 mmHg 25%
    08:00 +23°C° 0 mm 2 m/s 669 mmHg 20%
    09:00 +27°C° 0 mm 2 m/s 670 mmHg 15%
    10:00 +31°C° 0 mm 3 m/s 670 mmHg 10%
    11:00 +34°C° 0 mm 3 m/s 670 mmHg 9%
    12:00 +35°C° 0 mm 2 m/s 669 mmHg 8%
    13:00 +37°C° 0 mm 2 m/s 669 mmHg 7%
    14:00 +37°C° 0 mm 2 m/s 668 mmHg 7%
    15:00 +36°C° 0 mm 1 m/s 668 mmHg 7%
    16:00 +36°C° 0 mm 1 m/s 667 mmHg 7%
    17:00 +33°C° 0 mm 1 m/s 667 mmHg 9%
    18:00 +30°C° 0 mm 1 m/s 667 mmHg 10%
    19:00 +27°C° 0 mm 2 m/s 667 mmHg 12%
    20:00 +26°C° 0 mm 2 m/s 667 mmHg 13%
    21:00 +25°C° 0 mm 2 m/s 667 mmHg 14%
    22:00 +24°C° 0 mm 3 m/s 667 mmHg 14%
    23:00 +22°C° 0 mm 3 m/s 667 mmHg 16%
    Mostrar mais